Ingonish Beach, Nova Scotia

4:28 PM AST on December 02, 2016 (GMT -0400)
Ingonish Beach

Weather History for 71027 - March, 2013

Change the Weather History Date:

Saturday, March 9, 2013

  Actual Average Record
Temperature  
Mean Temperature 30 °F -  
Max Temperature 32 °F - - ()
Min Temperature 28 °F - - ()
Degree Days  
Heating Degree Days 35    
Moisture  
Dew Point 26 °F    
Average Humidity 82    
Maximum Humidity 93    
Minimum Humidity 66    
Precipitation  
Precipitation 0.00 in - - ()
Sea Level Pressure  
Sea Level Pressure 30.37 in    
Wind  
Wind Speed 4 mph ()    
Max Wind Speed 10 mph    
Max Gust Speed -    
T = Trace of Precipitation, MM = Missing Value Source: Averaged Metar Reports

Daily Weather History Graph

Daily Weather History Graph

Search for Another Location

Airport or City:

Trip Planner

Search our weather history database for the weather conditions in past years. The results will help you decide how hot, cold, wet, or windy it might be!

Date:

Astronomy

Mar. 09, 2013 Rise Set
Actual Time 6:25 AM AST 5:59 PM AST
Civil Twilight 5:55 AM AST 6:29 PM AST
Nautical Twilight 5:20 AM AST 7:04 PM AST
Astronomical Twilight 4:45 AM AST 7:40 PM AST
Moon 4:53 AM AST (3/9) 3:50 PM AST (3/9)
Length of Visible Light 12h 33m
Length of Day
11h 33m
Waning Crescent, 6% of the Moon is Illuminated
Mar 9
Waning Crescent
Mar 11
New
Mar 19
First Quarter
Mar 27
Full
Apr 3
Last Quarter

Hourly Weather History & Observations

Time (AST) Temp. Windchill Dew Point Humidity Pressure Visibility Wind Dir Wind Speed Gust Speed Precip Events Conditions
12:00 AM 30.2 °F 23.4 °F 25.7 °F 83% 30.31 in - ENE 6.9 mph - N/A   Unknown
1:00 AM 30.0 °F 26.5 °F 26.4 °F 86% 30.31 in - NE 3.5 mph - N/A   Unknown
2:00 AM 30 °F - 28 °F 88% 30.32 in - ENE 3.5 mph - -  
2:00 AM 29.7 °F 26.1 °F 27.9 °F 93% 30.32 in - ENE 3.5 mph - N/A   Unknown
3:00 AM 29.8 °F 22.2 °F 25.9 °F 85% 30.32 in - ENE 8.1 mph - N/A   Unknown
4:00 AM 29.5 °F 24.5 °F 27.7 °F 93% 30.32 in - NE 4.6 mph - N/A   Unknown
5:00 AM 29.7 °F 26.1 °F 27.3 °F 91% 30.32 in - NE 3.5 mph - N/A   Unknown
6:00 AM 29.7 °F 24.7 °F 27.0 °F 90% 30.32 in - NE 4.6 mph - N/A   Unknown
7:00 AM 30.2 °F 24.3 °F 26.1 °F 85% 30.34 in - ENE 5.8 mph - N/A   Unknown
8:00 AM 30 °F - 26 °F 78% 30.35 in - ENE 8.1 mph - -  
9:00 AM 30.6 °F 22.4 °F 25.0 °F 80% 30.35 in - ENE 9.2 mph - N/A   Unknown
10:00 AM 31.1 °F 22.4 °F 24.6 °F 77% 30.36 in - ENE 10.4 mph - N/A   Unknown
11:00 AM 32.0 °F 28.7 °F 25.2 °F 76% 30.37 in - NE 3.5 mph - N/A   Unknown
12:00 PM 31.8 °F 28.5 °F 25.2 °F 76% 30.38 in - ENE 3.5 mph - N/A   Unknown
1:00 PM 32.9 °F 29.8 °F 25.5 °F 74% 30.37 in - NE 3.5 mph - N/A   Unknown
2:00 PM 33 °F - 26 °F 66% 30.38 in - NE 3.5 mph - -  
2:00 PM 31.3 °F 27.9 °F 25.9 °F 80% 30.38 in - NE 3.5 mph - N/A   Unknown
3:00 PM 32.9 °F 29.8 °F 25.5 °F 74% 30.38 in - NE 3.5 mph - N/A   Unknown
4:00 PM 32.0 °F 28.7 °F 26.1 °F 79% 30.38 in - NE 3.5 mph - N/A   Unknown
5:00 PM 31.1 °F 27.7 °F 27.0 °F 85% 30.39 in - NE 3.5 mph - N/A   Unknown
6:00 PM 30.7 °F 27.3 °F 27.1 °F 86% 30.40 in - NNE 3.5 mph - N/A   Unknown
7:00 PM 30.6 °F 27.1 °F 26.8 °F 86% 30.41 in - NNE 3.5 mph - N/A   Unknown
8:00 PM 31 °F - 27 °F 77% 30.42 in - NE 3.5 mph - -  
8:00 PM 30.6 °F 27.1 °F 26.6 °F 85% 30.42 in - NE 3.5 mph - N/A   Unknown
9:00 PM 30.2 °F - 26.2 °F 85% 30.42 in - NE 2.3 mph - N/A   Unknown
10:00 PM 30.2 °F 26.7 °F 26.2 °F 85% 30.42 in - NE 3.5 mph - N/A   Unknown
11:00 PM 30.6 °F 27.1 °F 26.1 °F 83% 30.42 in - ENE 3.5 mph - N/A   Unknown